Probability
0 0 0 0 0 0 0 0 0 0 0 0 0 0 0 0 0 0 1 3 3 1 0 0 0 0 0 0 0 0 0 0 0 0 0 0 0 0 0 0 0 0 0 0 0 0 0 0 0
0 0 0 0 0 0 0 0 0 0 0 0 0 0 0 0 0 0 1 2 1 0 0 0 0 0 0 0 0 0 0 0 0 0 0 0 0 0 0 0 0 0 0 0 0 0 0 0 0
0 0 0 0 0 0 0 0 0 0 0 0 0 0 0 0 0 0 0 0 0 0 0 0 0 0 0 0 0 0 0 0 0 0 0 0 0 0 0 0 0 0 0 0 0 0 0 0 0
0 0 0 0 0 0 0 0 0 0 0 0 0 0 0 0 0 0 0 0 0 0 0 0 0 0 0 0 0 0 0 0 0 0 0 0 0 0 0 0 0 0 0 0 0 0 0 0 0
0 0 0 0 0 0 0 0 0 0 0 0 0 0 0 0 0 0 0 0 0 0 0 0 0 0 0 0 0 0 0 0 0 0 0 0 0 0 0 0 0 0 0 0 0 0 0 0 0
0 0 0 0 0 0 0 0 0 0 0 0 0 0 0 0 0 0 0 0 1 1 0 0 0 0 0 0 0 0 0 0 0 0 0 0 0 0 0 0 0 0 0 0 0 0 0 0 0
0 0 0 0 0 0 0 0 0 0 0 0 0 0 0 0 0 0 0 0 1 1 0 0 0 0 0 0 0 0 0 0 0 0 0 0 0 0 0 0 0 0 0 0 0 0 0 0 0
0 0 0 0 0 0 0 0 1 1 1 0 0 0 0 0 0 0 0 0 1 1 0 0 0 0 0 0 0 0 0 0 0 0 0 0 0 0 0 0 0 0 0 0 0 0 0 0 0
0 0 0 0 0 0 0 0 1 1 1 0 0 0 0 0 0 0 0 0 0 0 0 0 0 0 0 0 0 0 0 0 0 0 0 0 0 0 0 1 3 3 1 0 0 0 0 0 0
0 0 0 0 0 0 0 0 0 0 0 0 1 0 0 0 0 0 0 0 0 0 0 1 1 1 0 1 1 0 0 1 0 0 1 0 0 0 0 4 8 7 3 0 0 0 0 0 0
0 0 0 0 0 0 0 0 0 0 2 7 11 7 2 0 0 0 0 0 0 0 1 4 8 5 1 2 2 0 1 2 3 4 5 2 0 0 1 6 10 8 3 0 0 0 0 0 0
0 0 0 0 0 0 0 0 0 5 15 30 36 23 6 0 0 0 0 0 0 1 1 10 20 14 4 3 3 1 1 3 8 15 12 4 2 1 3 8 10 8 4 2 1 1 0 0 0
0 0 0 0 0 0 0 0 2 15 38 58 60 38 12 2 1 1 1 1 4 6 7 21 37 31 16 9 6 3 2 4 14 24 18 7 7 9 9 10 10 7 6 5 4 2 1 0 0
0 0 0 0 0 0 0 0 5 26 55 74 71 49 24 10 6 8 10 11 15 21 27 42 57 55 39 23 11 5 4 6 15 29 30 18 17 22 21 15 12 8 7 9 8 4 2 1 0
0 0 0 0 0 0 0 0 7 31 61 78 77 65 47 34 26 26 32 33 35 45 56 66 72 74 66 46 25 11 7 12 25 42 52 42 34 39 39 31 27 22 20 20 16 8 3 1 0
0 0 0 0 0 0 0 0 8 31 60 77 82 79 74 66 57 55 60 60 60 70 82 85 82 86 86 73 53 33 26 34 49 64 74 68 57 57 59 54 50 46 42 37 28 18 9 2 1
0 0 0 0 0 0 0 1 8 28 53 71 79 84 88 86 80 78 80 79 82 89 96 96 94 95 96 92 81 65 59 65 73 81 87 86 78 74 75 74 69 63 59 50 40 33 22 9 3
0 0 0 0 0 0 0 1 6 19 38 54 65 77 86 89 87 88 90 89 93 98 100 100 100 100 100 99 95 89 85 85 85 87 91 94 91 87 86 84 79 75 70 59 50 44 33 17 10
0 0 0 0 0 0 0 0 2 8 18 31 47 64 76 82 86 91 94 95 97 100 100 100 100 100 100 100 100 98 95 92 88 87 91 96 97 95 92 89 85 83 79 69 57 47 33 20 14
0 0 0 0 0 0 0 0 0 2 8 20 39 59 69 74 82 91 95 97 99 100 100 100 100 100 100 100 100 100 98 93 89 90 93 96 97 96 94 91 89 86 82 71 59 46 31 19 14
0 0 0 0 0 0 0 0 0 2 9 22 40 58 71 78 85 91 95 97 99 100 100 100 100 100 100 100 100 100 99 96 94 95 97 97 97 97 94 91 87 84 78 68 57 45 33 22 16
0 0 0 0 0 0 0 0 0 3 12 26 43 62 80 90 93 94 96 98 100 100 100 100 100 100 100 100 100 100 100 99 98 99 99 99 98 97 93 87 83 79 72 63 52 42 35 24 15
0 0 0 0 0 0 0 0 0 3 16 37 59 77 89 94 94 95 97 98 99 100 100 100 100 100 100 100 100 100 100 100 100 100 100 99 98 96 89 83 80 76 68 58 47 39 33 24 15
0 0 0 0 0 0 0 0 5 15 37 64 83 91 91 86 85 90 94 96 99 100 100 100 100 100 100 100 100 100 100 100 100 100 100 100 99 96 88 80 76 72 62 51 40 32 26 20 16
0 0 0 0 0 0 0 6 24 49 73 89 97 94 83 73 72 80 89 94 97 99 100 100 100 100 100 100 100 100 100 100 100 100 99 99 99 96 86 73 65 60 50 40 31 24 19 15 14
0 0 0 0 0 0 0 14 48 79 92 93 88 79 68 59 59 67 78 87 93 97 100 100 100 100 100 100 100 100 100 100 100 99 98 97 94 87 74 58 47 42 35 28 22 17 14 11 11
0 0 2 2 1 0 0 17 56 86 87 74 60 50 44 40 42 49 61 73 84 91 96 98 99 100 99 99 98 98 99 99 99 97 91 84 74 60 47 35 26 22 19 15 12 11 10 10 10
0 1 4 6 4 1 0 15 52 81 77 53 32 22 19 19 23 31 42 55 67 78 87 92 95 96 95 94 93 91 90 88 85 79 68 54 38 26 18 13 9 7 6 4 4 5 5 6 6
0 0 3 5 5 3 2 13 40 66 64 40 19 9 6 6 9 15 24 34 44 55 67 77 81 82 82 80 76 72 67 59 52 42 31 20 11 6 3 2 2 1 1 0 0 1 1 1 2
0 0 1 2 3 4 5 11 27 48 51 33 13 5 3 2 3 6 12 19 26 36 50 62 66 67 68 65 58 51 45 35 25 16 10 5 2 1 0 0 0 0 0 0 0 0 0 0 0
Wind_Speed
13 14 12 9 7 5 6 4 11 13 15 14 10 12 20 17 13 15 14 19 23 20 17 16 14 13 12 11 11 11 11 11 10 10 9 9 9 9 8 8 8 8 9 8 7 7 7 7 6
13 16 10 7 7 1 4 8 14 14 11 8 7 15 19 16 17 16 15 20 23 19 16 15 15 14 13 12 11 12 11 11 10 10 9 9 9 8 8 8 7 7 7 7 6 6 6 6 6
14 17 8 8 7 4 2 7 10 10 6 8 12 17 14 12 15 14 15 20 20 18 17 16 16 14 13 12 11 11 11 11 10 10 9 9 8 8 8 7 7 6 6 5 5 5 5 6 6
10 8 8 10 7 7 6 4 6 8 7 8 13 13 11 9 14 17 16 20 20 19 18 16 16 15 14 13 12 11 11 10 10 9 9 8 7 7 7 6 6 5 5 4 4 4 4 5 5
8 8 10 12 8 6 6 4 3 6 8 9 16 14 12 12 19 17 15 18 19 19 18 16 16 15 14 13 13 12 11 10 9 9 8 8 7 6 6 5 5 4 4 3 3 3 4 4 5
8 9 11 10 8 3 4 4 4 5 8 12 18 16 12 14 15 15 14 14 19 19 18 15 16 15 14 13 12 12 11 10 9 9 9 8 7 6 5 4 4 3 3 3 3 3 4 4 5
9 11 14 14 9 3 3 3 5 6 5 8 15 14 11 14 13 12 11 12 20 19 18 14 14 13 13 12 12 11 11 10 9 8 8 7 7 6 6 5 5 5 4 4 5 5 6 6 6
10 11 17 16 11 5 6 4 5 5 6 6 8 11 14 17 14 14 10 10 16 17 16 15 14 12 11 11 11 11 10 10 9 8 8 7 7 8 9 8 8 7 7 7 7 8 8 8 9
13 12 14 16 10 4 4 6 7 7 9 4 5 9 20 21 18 15 10 11 11 14 13 14 15 13 12 12 12 11 10 9 9 8 9 8 8 10 9 11 11 11 9 9 9 10 10 10 11
11 12 17 15 9 7 5 2 5 7 11 8 9 17 22 20 18 16 13 13 12 12 12 10 14 12 12 10 10 9 9 9 8 8 9 8 8 5 7 10 13 12 11 10 11 11 10 10 8
16 17 17 17 6 5 5 4 6 9 11 13 15 19 20 20 17 16 14 13 13 11 10 8 12 9 9 8 9 7 6 7 8 9 9 6 5 4 5 5 7 7 9 8 9 10 8 8 7
17 16 18 17 8 4 7 11 9 10 6 12 15 18 19 19 17 16 15 14 13 12 10 8 10 6 4 6 7 5 5 7 6 7 6 5 2 2 0 1 3 4 4 4 4 4 7 7 7
17 17 17 15 11 8 9 13 12 7 10 15 14 13 16 18 16 15 14 13 14 12 11 8 8 7 3 1 1 4 3 5 4 6 5 4 2 2 1 1 0 2 2 3 3 3 4 4 5
14 14 16 16 14 12 13 13 14 8 14 19 20 17 17 17 17 16 14 12 13 13 12 10 8 8 5 3 2 2 2 2 3 5 8 5 2 2 1 1 1 3 2 1 2 4 3 4 4
13 15 16 16 14 15 14 15 15 10 14 15 19 18 17 16 16 16 14 11 13 13 12 11 10 10 7 6 5 4 4 4 3 3 6 6 4 3 3 2 2 2 2 2 3 4 3 4 4
12 15 16 17 18 18 18 17 14 12 13 12 12 14 15 13 15 14 15 11 11 13 11 11 11 12 10 7 6 4 4 2 3 3 4 6 5 4 3 2 2 2 2 2 2 3 3 3 4
14 16 18 19 19 19 18 16 14 14 15 14 13 13 14 14 14 14 15 14 11 10 11 9 8 11 11 9 5 4 2 0 1 2 2 4 4 4 3 2 2 2 2 2 4 1 2 3 4
13 16 18 18 17 18 16 13 9 7 9 10 11 12 12 14 13 14 15 15 12 9 10 9 7 7 8 7 5 3 2 1 1 1 1 3 3 3 2 2 3 3 2 1 2 3 3 3 4
16 15 15 13 15 15 14 14 12 10 10 10 9 7 6 7 11 11 12 12 12 10 10 9 9 7 6 5 6 5 4 2 2 1 2 2 3 3 2 2 1 2 2 2 2 2 4 4 4
11 13 15 15 12 7 8 11 12 11 12 8 9 11 10 7 6 8 9 9 10 10 10 9 8 8 8 6 5 3 3 3 3 3 3 3 3 3 4 3 2 2 1 2 3 2 3 4 4
13 14 16 17 15 12 11 13 16 15 12 9 7 6 7 9 7 7 8 8 9 9 10 9 8 8 8 7 5 4 3 3 4 5 4 5 5 4 3 3 2 2 2 2 3 3 5 5 4
14 13 15 16 15 13 14 14 17 18 15 13 11 8 6 5 5 2 2 3 4 7 8 7 7 7 6 6 6 6 6 5 5 4 4 4 5 4 4 3 3 3 2 3 3 4 4 5 5
13 12 12 12 13 15 16 15 14 17 19 17 12 8 6 7 7 7 6 4 2 2 4 6 5 5 5 5 5 5 5 4 3 3 3 4 4 4 4 4 3 3 2 3 4 4 4 4 5
11 11 12 12 13 17 18 18 17 14 9 10 12 12 11 9 10 10 9 8 7 5 4 4 4 4 4 4 3 3 3 3 3 2 2 3 2 3 4 4 3 3 3 4 4 4 5 5 6
11 11 10 13 14 17 17 19 11 3 10 17 17 14 11 9 9 8 8 8 7 6 5 4 5 4 4 3 3 2 1 0 1 1 2 2 2 2 3 3 3 3 3 4 3 4 4 5 6
11 12 11 12 15 15 12 7 5 13 14 15 14 13 10 8 6 6 6 6 5 5 4 4 5 5 4 5 4 3 2 1 1 2 1 1 1 1 2 2 3 4 4 3 3 3 4 5 5
13 13 15 14 18 19 16 9 6 8 10 10 11 10 8 7 5 5 5 5 5 4 4 3 4 5 5 5 5 4 4 4 4 3 3 3 2 2 3 3 3 3 3 3 3 3 4 4 4
11 12 9 7 9 14 17 19 5 9 10 9 8 8 6 6 5 4 4 3 3 3 3 4 4 4 4 4 2 5 4 5 4 4 5 4 3 3 3 3 4 4 4 3 3 3 4 4 4
7 6 7 8 7 8 10 6 6 5 9 10 9 7 4 4 4 4 3 2 2 3 4 4 4 4 4 4 4 4 4 4 4 4 4 4 3 3 3 3 3 4 4 3 3 4 5 5 4
2 3 3 3 7 6 8 5 6 6 8 9 9 8 5 3 4 4 4 3 4 4 4 3 3 3 3 3 3 4 3 3 4 4 4 3 3 3 4 4 4 4 4 4 4 5 5 5 5
Wind_Direction
272 259 248 261 250 248 285 52 66 64 64 57 47 57 63 54 62 96 118 117 111 116 122 122 118 118 122 130 137 139 141 140 137 133 125 115 107 102 101 104 111 119 121 116 110 105 104 110 118
280 277 262 247 247 321 324 55 68 65 72 86 77 76 76 72 92 108 117 116 115 123 131 124 123 121 121 125 133 140 144 146 143 139 131 122 114 108 105 105 111 120 127 129 127 124 124 127 134
271 271 270 255 250 126 334 55 83 95 105 89 71 59 65 89 107 113 123 123 121 126 120 124 129 126 124 125 129 139 144 147 146 139 132 126 122 118 112 110 114 122 132 140 145 148 151 153 157
271 257 241 257 273 128 126 102 118 128 112 99 99 82 75 78 107 119 136 127 124 121 122 131 133 132 130 129 129 133 139 140 139 135 131 130 129 128 124 123 124 127 134 143 151 160 166 172 179
249 263 260 269 274 119 99 105 118 87 92 83 84 95 100 95 107 130 144 131 131 125 127 133 136 137 136 136 136 136 138 139 139 140 139 139 139 138 135 135 136 139 142 146 153 164 177 190 199
254 257 270 277 285 119 123 134 111 78 95 99 106 108 105 114 124 147 139 141 128 126 127 132 138 140 142 143 144 144 145 145 146 146 145 145 146 150 154 159 162 168 177 186 194 202 205 213 219
258 273 276 281 288 228 144 131 139 126 111 108 116 113 126 134 143 138 137 144 126 127 129 140 144 146 146 147 149 151 153 154 153 151 150 153 162 174 187 194 200 207 218 226 230 231 231 232 232
259 276 280 277 269 254 158 147 115 120 91 77 118 129 146 144 147 132 158 133 124 132 137 147 151 153 157 158 159 159 160 162 163 164 170 180 193 203 209 209 210 216 224 232 237 241 242 241 240
250 260 269 274 282 257 136 141 123 100 107 102 36 103 140 145 146 144 159 130 129 134 141 157 152 159 167 166 161 167 171 174 176 182 191 202 215 212 208 218 201 207 220 230 238 242 245 247 244
230 246 253 269 333 359 58 74 143 157 142 147 109 111 134 148 150 156 163 152 153 146 150 163 153 160 173 165 154 174 180 176 195 190 188 208 230 224 194 190 187 204 217 229 236 243 248 246 249
229 244 265 278 286 295 301 254 218 193 182 171 148 140 149 155 157 163 167 162 163 155 155 165 146 162 175 151 164 182 183 163 200 195 186 215 234 199 164 168 182 204 218 228 229 230 236 237 234
237 247 258 273 298 285 271 278 246 213 206 154 142 150 158 164 166 169 171 169 164 164 164 171 138 160 192 161 168 176 174 163 193 163 179 206 218 287 84 144 156 190 210 219 237 224 235 245 243
237 248 264 269 265 265 259 258 261 222 109 106 121 156 170 171 171 172 173 174 166 167 168 166 140 154 184 114 158 181 195 163 175 143 176 241 195 185 71 10 341 257 216 207 240 263 270 272 277
248 242 255 265 260 250 250 257 249 204 140 138 150 174 185 178 176 174 174 177 169 169 169 160 151 154 163 170 248 279 209 150 179 158 170 195 216 142 148 201 254 288 291 208 220 253 260 264 266
268 268 255 249 249 251 252 248 244 202 162 159 162 175 181 180 179 176 173 176 174 169 167 160 166 165 170 185 200 222 243 180 198 168 161 168 197 172 175 205 219 250 270 256 248 273 267 267 273
248 256 258 250 238 236 240 246 231 192 170 169 178 176 177 179 183 176 169 175 180 170 165 167 178 174 176 190 194 216 232 202 165 156 156 168 187 185 189 215 228 227 249 243 239 248 273 281 284
243 239 246 248 234 224 228 242 251 203 181 177 182 179 175 174 188 176 172 176 186 168 158 170 184 172 177 186 188 223 226 210 130 134 142 159 183 197 190 221 250 263 263 264 276 259 250 279 282
244 237 235 242 242 216 227 237 243 190 175 184 184 181 176 176 187 178 177 177 178 164 155 168 184 174 171 172 181 207 229 179 140 127 152 162 188 210 204 214 239 253 274 270 284 310 286 279 285
276 295 293 269 250 218 217 236 232 200 198 191 173 176 171 182 180 179 178 173 168 160 159 171 185 177 167 171 184 192 203 202 201 207 207 204 205 217 221 251 273 268 276 283 280 285 289 279 268
293 285 287 291 282 253 234 248 256 226 210 196 173 164 170 176 186 166 174 171 168 165 167 175 186 180 178 182 183 184 188 200 215 225 220 218 216 221 229 210 229 242 262 284 286 286 276 277 273
266 264 267 273 276 255 239 247 258 255 220 190 180 159 158 155 165 169 172 177 174 174 179 189 189 185 187 186 181 188 183 208 214 214 215 217 219 215 219 225 231 241 242 249 257 259 261 266 272
259 259 262 267 272 266 246 243 235 239 225 202 192 185 166 132 131 132 157 162 169 174 179 181 185 189 187 185 195 199 205 214 219 215 212 206 213 219 222 231 235 243 251 257 258 256 254 259 268
276 300 307 286 277 275 268 262 255 240 223 205 183 157 116 84 73 51 32 32 61 122 150 166 172 180 183 188 201 210 225 231 231 212 213 203 204 218 227 226 235 243 253 263 267 275 269 261 259
286 294 291 281 271 260 257 262 261 265 242 147 113 94 73 57 53 42 31 27 36 42 70 106 127 137 153 172 185 205 230 242 254 231 217 215 219 218 227 232 238 248 252 253 255 262 266 264 264
262 264 265 256 245 249 249 250 265 358 97 117 115 103 87 58 48 43 39 33 36 43 53 85 104 108 117 128 126 130 118 230 260 272 262 255 263 250 250 251 252 257 260 263 262 266 268 269 268
275 268 264 269 272 274 268 272 26 62 72 86 95 98 93 84 64 53 47 42 36 43 54 80 96 101 99 95 86 76 66 55 59 49 16 8 344 324 311 285 279 279 280 284 284 273 269 268 268
281 271 271 273 275 278 276 257 168 115 98 99 101 96 93 92 81 65 51 41 32 33 39 63 84 89 87 91 93 82 64 53 55 54 50 47 32 20 21 345 330 319 314 311 312 299 290 283 279
303 306 291 270 269 264 262 259 231 160 134 115 106 106 111 112 102 87 71 53 36 32 40 57 69 82 91 96 104 99 85 74 66 60 61 52 40 33 12 360 343 328 317 313 315 308 300 300 290
318 334 346 323 286 278 271 271 52 92 127 128 123 116 109 109 103 92 82 66 49 46 46 58 77 85 85 84 77 83 88 93 88 74 62 52 31 358 7 350 335 321 314 331 327 305 297 300 305
359 356 24 321 309 306 295 292 56 84 109 127 132 132 127 106 81 72 58 43 40 34 35 49 64 78 82 81 87 88 79 72 85 85 68 48 31 1 3 351 348 341 358 352 337 328 337 333 334